EDT,Max TemperatureF,Mean TemperatureF,Min TemperatureF,Max Dew PointF,MeanDew PointF,Min DewpointF,Max Humidity, Mean Humidity, Min Humidity, Max Sea Level PressureIn, Mean Sea Level PressureIn, Min Sea Level PressureIn, Max VisibilityMiles, Mean VisibilityMiles, Min VisibilityMiles, Max Wind SpeedMPH, Mean Wind SpeedMPH, Max Gust SpeedMPH,PrecipitationIn, CloudCover, Events, WindDirDegrees
2012-9-1,91,83,75,76,72,65,94,73,45,30.18,30.12,30.07,10,10,9,10,4,,0.00,1,,68
2012-9-2,91,80,72,72,68,63,94,69,42,30.11,30.06,30.00,10,10,8,9,3,,0.00,0,,114
2012-9-3,91,81,71,72,68,57,91,68,33,30.07,30.03,29.98,10,10,10,10,4,,0.00,0,,132
2012-9-4,93,82,73,72,69,65,91,70,41,30.04,30.00,29.93,10,10,9,13,5,,0.03,2,,179
2012-9-5,93,82,73,73,70,64,94,75,41,30.00,29.97,29.91,10,8,1,14,5,22,0.71,3,Rain-Thunderstorm,191
2012-9-6,91,82,73,72,71,69,91,80,52,30.03,29.99,29.95,10,9,2,23,6,26,0.24,2,Rain-Thunderstorm,200
2012-9-7,91,80,73,74,71,69,94,80,53,30.01,29.96,29.91,10,9,1,13,4,29,0.50,3,Rain,188
2012-9-8,91,82,73,73,70,64,94,74,48,29.97,29.91,29.86,10,10,7,12,6,20,0.00,2,Rain,203
2012-9-9,87,80,75,75,73,71,91,81,63,29.96,29.90,29.85,10,10,5,16,9,23,0.13,3,Rain,236
2012-9-10,86,80,75,75,73,69,94,78,67,30.05,29.99,29.92,10,9,5,16,6,,0.01,5,Rain,31
2012-9-11,87,80,73,71,67,63,85,68,48,30.15,30.10,30.04,10,10,10,20,7,23,0.00,4,,49
2012-9-12,89,80,72,72,68,65,85,71,45,30.15,30.12,30.09,10,10,10,21,8,24,0.03,4,,54
2012-9-13,90,81,73,71,68,65,87,70,46,30.14,30.09,30.05,10,10,10,18,7,,0.00,1,,50
2012-9-14,88,80,73,74,71,70,91,77,59,30.09,30.06,30.02,10,9,0,16,8,26,0.45,5,Rain,67
2012-9-15,89,80,73,73,70,67,94,78,49,30.12,30.07,30.03,10,10,6,14,6,,0.01,4,Rain,57
2012-9-16,90,81,73,72,70,67,91,71,48,30.08,30.04,30.00,10,10,10,15,5,21,0.00,2,,89
2012-9-17,91,82,73,74,71,67,94,77,48,30.04,29.98,29.92,10,9,2,18,5,26,0.24,2,Rain,143
2012-9-18,87,80,73,74,72,70,94,84,63,29.97,29.93,29.87,10,9,1,22,8,32,0.23,3,Rain-Thunderstorm,201
2012-9-19,89,80,73,74,72,71,94,83,57,30.06,29.98,29.91,10,10,10,13,6,18,0.00,2,,186
2012-9-20,89,80,73,73,70,67,94,75,51,30.05,30.01,29.95,10,10,9,12,3,,0.00,1,,329
2012-9-21,89,80,71,73,71,68,94,82,55,30.03,29.99,29.94,10,8,0,24,5,33,2.16,3,Fog-Rain,27
2012-9-22,87,79,72,74,71,68,93,81,57,30.05,30.01,29.97,10,10,8,9,3,,0.02,2,Rain,32
2012-9-23,91,80,70,72,68,63,94,74,40,30.08,30.05,30.00,10,8,0,10,3,,0.00,1,Fog,354
2012-9-24,87,80,72,70,60,53,79,56,32,30.11,30.07,30.04,10,10,10,13,7,,0.00,1,,8
2012-9-25,84,76,68,72,68,61,89,76,55,30.12,30.08,30.04,10,10,10,17,4,21,0.01,4,,26
2012-9-26,91,80,69,73,69,64,96,76,42,30.13,30.09,30.05,10,9,2,12,3,,0.00,0,Fog,69
2012-9-27,90,80,73,74,72,67,100,85,53,30.13,30.09,30.04,10,7,0,17,3,,0.00,2,Fog,15
2012-9-28,89,80,73,74,72,70,94,85,61,30.07,30.02,29.97,10,8,0,26,5,33,1.25,4,Rain-Thunderstorm,10
2012-9-29,90,81,72,74,71,69,93,78,50,30.00,29.94,29.87,10,10,7,10,3,,0.01,0,,79
2012-9-30,90,82,73,74,72,70,93,75,52,29.91,29.85,29.78,10,10,10,9,3,,0.00,1,Rain,170